Weather Roundup
Issued by NWS Springfield, MO

Home | Current Version | Previous Version | Text Only | Print | Product List | Glossary On
Versions: 1 2 3 4 5 6 7 8 9 10 11 12 13 14 15 16 17 18 19 20 21 22 23 24 25 26 27 28 29 30 31 32 33 34 35 36 37 38 39 40 41 42 43 44 45 46 47 48 49 50
000
NZUS99 KSGF 241507
HRRSGF

HOURLY WEATHER
NATIONAL WEATHER SERVICE SPRINGFIELD MO
1000 AM CDT THU APR 24 2014

......SGF CWA......

CITY           SKY/WX    TMP DP  RH WIND       PRES   REMARKS
SPRINGFIELD    CLOUDY    63  45  51 SE16      29.72S
JOPLIN         LGT RAIN  65  56  72 S16G24    29.65F
WEST PLAINS    MOSUNNY   66  41  40 S13G21    29.83R
ROLLA          PTSUNNY   64  38  38 SE16      29.73F
OSAGE BEACH    CLOUDY    66  39  37 S12G17    29.77R

......SURROUNDING SGF CWA......

CITY           SKY/WX    TMP DP  RH WIND       PRES   REMARKS
CHANUTE        CLOUDY    67  60  78 S15       29.64F
PARSONS        CLOUDY    69  60  73 S10G20    29.66S
COFFEYVILLE    CLOUDY    69  61  75 S17G26    29.65F
EMPORIA        LGT RAIN  59  56  89 N3        29.65R
GROVE OK       CLOUDY    70  55  60 SW13G21   29.72R
ROGERS AR      LGT RAIN  63  55  75 S30G47    29.77F
SILOAM SPRINGS CLOUDY    61  52  72 SE15G28   29.71F
HARRISON AR    CLOUDY    68  51  54 S8        29.82R
NEAR YELLVILLE CLOUDY    70  45  40 SW7G16    29.82R

......KANSAS AND MISSOURI......

CITY           SKY/WX    TMP DP  RH WIND       PRES   REMARKS
KANSAS CTY INT CLOUDY    57  55  93 E10       29.65F
DOWNTOWN KC    CLOUDY    59  55  87 E5        29.65F
COLUMBIA       CLOUDY    64  40  41 S10       29.74S
SEDALIA        CLOUDY    62  51  67 SE6       29.71F
ST JOSEPH      CLOUDY    58  56  93 E5        29.64F
ST LOUIS       PTSUNNY   64  37  36 SE22      29.83F
SPIRIT OF STL  PTSUNNY   64  37  36 SE13G18   29.81R
KIRKSVILLE     CLOUDY    58  40  51 SE12      29.73S
WICHITA        CLOUDY    57  50  77 N25       29.71R
TOPEKA         PTSUNNY   63  58  83 E5        29.65S
OLATHE         TSTM      57  55  93 SE12      29.65S FOG

......TENNESSEE......

CITY           SKY/WX    TMP DP  RH WIND       PRES   REMARKS
MEMPHIS        PTSUNNY   69  45  41 S8        29.90F
NASHVILLE      PTSUNNY   65  40  39 S8        30.00F

......ARKANSAS.......

CITY           SKY/WX    TMP DP  RH WIND       PRES   REMARKS
FAYETTEVILLE   LGT RAIN  62  56  80 SE10G26   29.80F
FT SMITH       TSTM      61  58  90 W9        29.80F
LITTLE ROCK    PTSUNNY   70  55  59 S5        29.86R

......OKLAHOMA.......

CITY           SKY/WX    TMP DP  RH WIND       PRES   REMARKS
TULSA          CLOUDY    68  63  84 S17G26    29.68R
PONCA CITY     CLOUDY    62  56  80 NW14G23   29.68R
MCALESTER      CLOUDY    66  60  81 S8        29.77R
OKLAHOMA CITY  CLOUDY    61  52  72 NW22G31   29.74R

......IOWA............

CITY           SKY/WX    TMP DP  RH WIND       PRES   REMARKS
DES MOINES     LGT RAIN  52  50  93 S21       29.62F FOG
QUAD CITIES    PTSUNNY   58  38  47 SE21G28   29.77F

......ILLINOIS........

CITY           SKY/WX    TMP DP  RH WIND       PRES   REMARKS
QUINCY         MOSUNNY   62  38  40 SE16      29.77F
CHICAGO        CLOUDY    54  35  48 SE22      29.94F



USA.gov is the U.S. government's official web portal to all federal, state and local government web resources and services.